Regional Weather Roundup
Issued by NWS Bismarck, ND

Home | Current Version | Previous Version | Text Only | Print | Product List | Glossary On
Versions: 1 2 3 4 5 6 7 8 9 10 11 12 13 14 15 16 17 18 19 20 21 22 23 24 25 26 27 28 29 30 31 32 33 34 35 36 37 38 39 40 41 42 43 44 45 46 47 48 49 50
000
ASUS43 KBIS 300859
RWRBIS

NWR BROADCAST TEXT
NATIONAL WEATHER SERVICE BISMARCK ND
400 AM CDT SAT AUG 30 2014

NOTE: "FAIR" INDICATES FEW OR NO CLOUDS BELOW 12,000 FEET WITH NO
SIGNIFICANT WEATHER AND/OR OBSTRUCTIONS TO VISIBILITY.


CITY           SKY/WX    TMP DP  RH WIND       PRES   REMARKS
WILLISTON      CLEAR     57  51  80 SE5       29.93F
MINOT          CLEAR     50  46  86 S5        29.96S
MINOT AFB      NOT AVBL
BISMARCK       CLEAR     49  49 100 CALM      30.00S
DICKINSON      NOT AVBL
GARRISON         N/A     49  47  93 CALM      29.98S
HETTINGER ARPT CLEAR     51  49  92 SE5       29.99F
JAMESTOWN      NOT AVBL
CARRINGTON     FAIR      46  46 100 NW7       29.99R
CROSBY         FAIR      54  54 100 S10       29.93F
HARVEY         FOG       41  41 100 CALM      29.99S VSB 1
HAZEN          FAIR      41  41 100 CALM      29.99F
LINTON         FOG       46  46 100 CALM      29.99S VSB<1/4
RUGBY          FAIR      48  48 100 SE6       29.99R
TIOGA          FAIR      48  48 100 SE7       29.98F
WATFORD CITY   FAIR      48  48 100 CALM      29.93F
$$

CITY           SKY/WX    TMP DP  RH WIND       PRES   REMARKS
GRAND FORKS    CLEAR     51  50  96 NW9       29.93R
GRAND FORKS AF NOT AVBL
DEVILS LAKE    CLEAR     45  39  81 N7        29.96S
FARGO          CLOUDY    59  53  80 N12       29.89S
CAVALIER       FAIR      46  45  93 NW3       29.96S
GRAFTON        FAIR      48  48 100 N6        29.95R
GWINNER        CLOUDY    61  57  88 N13G18    29.92F
LANGDON        FAIR      39  39 100 CALM      29.98R
WALHALLA       FAIR      46  46 100 NW3       29.97S
$$

CITY           SKY/WX    TMP DP  RH WIND       PRES   REMARKS
ABERDEEN       CLOUDY    59  56  89 N12       29.93S
MOBRIDGE       CLEAR     51  51 100 N6        29.97R
RAPID CITY     CLEAR     50  48  93 CALM      30.00F
GLASGOW        CLEAR     56  52  86 E14       29.81F
SIDNEY         CLEAR     55  52  88 S7        29.93F
WOLF POINT     CLEAR     58  51  78 VRB3      29.86F
GLENDIVE       CLEAR     55  52  88 S5        29.92F
MILES CITY     CLEAR     60  51  72 SE14      29.86F
BAKER          CLEAR     54  52  93 SE13      29.95F
$$

CITY           SKY/WX    TMP DP  RH WIND       PRES   REMARKS
BILLINGS       PTCLDY    59  53  80 NW8       29.83F
GREAT FALLS    MOCLDY    62  48  60 SW9       29.78F
$$



USA.gov is the U.S. government's official web portal to all federal, state and local government web resources and services.